Forum de l'orientation

Discussions sur les études et les métiers

Vous n'êtes pas identifié.









































Flux RSS Toutes les discussions sur l’orientation

Discussion Réponses Vues Dernier message
Psychanalise par benjitex
0 260 30-11-2016 21:33:45 par benjitex
1 359 30-11-2016 19:08:39 par celestine.tanguy
1 335 30-11-2016 17:01:29 par clementine.marcel
0 203 27-11-2016 22:06:07 par valoche
1 336 27-11-2016 21:55:55 par valoche
APB Gros Doute par Élite1
1 249 26-11-2016 17:45:20 par Élite1
Indecis:DUT, prepa, fac? par chanaloglu
1 305 25-11-2016 23:09:20 par chanaloglu
0 205 24-11-2016 10:52:37 par oDoco
0 213 23-11-2016 16:18:21 par promosalons
0 223 23-11-2016 10:11:06 par promosalons
0 257 22-11-2016 11:00:38 par promosalons
0 216 22-11-2016 09:55:35 par promosalons
2 488 21-11-2016 21:07:05 par Heisenmax
0 281 21-11-2016 14:57:48 par promosalons
0 300 21-11-2016 14:47:38 par promosalons
0 179 21-11-2016 10:04:52 par promosalons
0 319 21-11-2016 09:50:13 par promosalons
1 362 20-11-2016 10:08:41 par école Dep'Art
0 219 18-11-2016 10:17:37 par promosalons
3 450 16-11-2016 08:44:15 par Floki83
0 183 15-11-2016 12:04:17 par promosalons
1 340 15-11-2016 10:01:39 par Floki83
Les formations par alysonorientation
1 272 15-11-2016 09:59:39 par Floki83
0 268 13-11-2016 15:34:40 par Onizuka
0 197 10-11-2016 14:16:17 par promosalons
Besoin d'aide par Clyab
0 264 08-11-2016 22:26:53 par Clyab
Etudes de kiné par mgzls
3 598 08-11-2016 15:09:50 par Floki83
1 304 08-11-2016 12:15:06 par Yoni
0 200 08-11-2016 11:16:23 par promosalons
0 260 06-11-2016 18:04:17 par LucieVui
2 452 04-11-2016 22:15:01 par laetitiazmrmn
0 200 02-11-2016 14:06:16 par promosalons
1 364 02-11-2016 11:44:03 par CnC Orientation
2 366 01-11-2016 11:34:32 par ornella soh
PACES par Myriam1999
5 674 31-10-2016 13:28:29 par Myriam1999
0 282 31-10-2016 10:35:53 par promosalons
0 302 28-10-2016 14:44:34 par promosalons
se reorienté par sunsaito
0 240 28-10-2016 13:17:55 par sunsaito
0 197 26-10-2016 14:19:55 par promosalons
orientation par maxome
5 1752 22-10-2016 11:12:23 par Cactus37
Choix de lycée, formation par ArthurAudengeles
0 266 21-10-2016 02:09:32 par ArthurAudengeles
0 266 19-10-2016 22:50:14 par alexf55
0 201 18-10-2016 16:01:08 par promosalons
0 210 18-10-2016 15:55:58 par promosalons
0 208 18-10-2016 15:14:11 par promosalons
1 289 17-10-2016 11:41:16 par Karl
1 362 12-10-2016 22:42:07 par nico25700
0 264 12-10-2016 22:37:07 par nico25700
0 239 11-10-2016 11:49:05 par promosalons
0 253 09-10-2016 19:55:02 par totoche85v
Triplette de Lyon par promosalons
0 223 04-10-2016 17:37:05 par promosalons
0 222 04-10-2016 14:39:39 par promosalons
Culture et Formation par Antiz63
0 258 04-10-2016 13:56:21 par Antiz63
0 231 03-10-2016 10:29:43 par promosalons
0 242 03-10-2016 00:27:14 par Camille361
0 210 02-10-2016 00:07:50 par amy di
Canada après le bac par SachaBaldassari
0 276 28-09-2016 14:05:11 par SachaBaldassari
0 266 22-09-2016 11:18:06 par doudo
Ou dois-je allez ? par Ketox
1 384 21-09-2016 00:39:33 par Mr_orientation
0 448 20-09-2016 15:51:13 par promosalons
0 305 19-09-2016 16:32:59 par promosalons
0 296 17-09-2016 22:41:05 par Orientation111
0 246 16-09-2016 10:25:22 par promosalons
0 255 14-09-2016 11:59:49 par promosalons
que puis je faire? par stacygrim
1 357 11-09-2016 18:05:49 par école Dep'Art
Travailler à la BPM par mdubourvi00
0 272 10-09-2016 15:38:19 par mdubourvi00
0 301 06-09-2016 17:46:42 par Mary33
0 246 02-09-2016 00:09:55 par guy200
0 521 31-08-2016 11:43:21 par promosalons
1 393 30-08-2016 20:31:54 par marmath

Pied de page des forums